Location: Les Martinières
(47.2667°N, 1.4410°E)
Time: 01:03:24
(UTC+00:00)

Cosmos 468 Rocket - Pass Details

Date: 15 May 2026
Orbit: 740 x 773 km, 74.0° (Epoch: 9 June)

Event Time Altitude Azimuth Distance (km) Brightness Sun altitude
Exits shadow 22:30:14 42° 193° (SSW) 1,087 4.4 -21.3°
Maximum altitude 22:32:03 82° 111° (ESE) 783 3.9 -21.4°
Drops below altitude 10° 22:37:19 10° 24° (NNE) 2,315 7.1 -21.7°
Sets 22:39:42 0° 24° (NNE) 3,241 8.0 -21.8°
